Location: Chagrin Falls Park
(41.4139°N, 81.3865°W)
Time: 18:05:43
(UTC+00:00)

Okean-O - Pass Details

Date: 29 October 2020
Orbit: 638 x 641 km, 98.2° (Epoch: 24 November)

Event Time Altitude Azimuth Distance (km) Brightness Sun altitude
Rises 22:51:44 0° 128° (SE) 2,936 5.6 -5.9°
Reaches altitude 10° 22:54:26 10° 110° (ESE) 2,031 4.7 -6.4°
Maximum altitude 22:57:34 19° 65° (ENE) 1,511 4.0 -7.0°
Drops below altitude 10° 23:00:43 10° 20° (NNE) 2,041 4.9 -7.5°
Sets 23:03:25 0° 3° (N) 2,954 5.9 -8.0°
